FENGYUN 1C DEB, 30153

Orbit data source: Space-Track

FENGYUN 1C DEB, 30153 is space debris in SSO originally from a launch on Mon, 10 May 1999 UTC launched from the Taiyaun Space Center, China (TSC). Fengyun 1C debris stems from the Chinese weather satellite Fengyun-1C, which was intentionally destroyed by a Chinese anti-satellite missile in 2007. This event dramatically increased the amount of space debris, with thousands of trackable fragments posing hazards to satellites and human spaceflight. The Fengyun 1C debris cloud has become a focal point in discussions about space sustainability and the need for international regulations to prevent the creation of new debris.

Loading next visibility...
Identifier
30153, 1999-025TJ
Orbit
SSO
Country
Flag of CNCN / PRC
Related business
Manufacturer
Unknown
Mission
Spacecraft
Bus & Motor
Unknown
Mass
Unknown
Launch date (UTC)
1999-05-10 (27 years ago)
Launch vehicle
Unknown
Launch site
Taiyaun Space Center, China (TSC)
Object type
Payload
Rocket body
Debris
Shape & HBR
Unknown shape, 0.1 m
Radar Cross Section
Medium (>0.1 m² and <1 m²)

Expand to show TLE details & history
Last TLE update: 3 days ago

TLE from 3 days ago
0 FENGYUN 1C DEB
1 30153U 99025TJ  26251.51814244  .00000464  00000-0  43412-3 0  9993
2 30153 100.4689 275.0774 0198946  40.4646 114.9293 13.79300769984932
Epoch: 2026-09-08T12:26Z
TLE epoch observation values (Epoch: 2026-09-08T12:26:07.506Z)
Latitude
22.18056°
Longitude
-74.73921°
Altitude
1,032.923 km
Speed
7.305 km/s
True Right ascension
06h 37m 30s
True Declination
22° 03' 54"
Sunlit
Object was in daylight at epoch
Visualization orbit readout
Latitude
Unknown
Longitude
Unknown
Altitude
Unknown
Speed
Unknown
Apparent Right ascension
Unknown
Apparent Declination
Unknown
Sunlit
N/A
Visualization observer readout
Local Sidereal Time
06:15:25
Azimuth
Unknown
Elevation
Unknown
Doppler factor
Unknown
Orbital elements
Apogee altitude
1,109.733 km
Perigee altitude
817.608 km
Semi-major axis
7,341.807 km
Eccentricity
0.01989
Inclination
100.4689°
RAAN
275.0774°
Arg. of periapsis
40.4646°
True anomaly
116.97476°
Mean anomaly
114.9293°
Eccentric anomaly
115.95421°
Mean motion
3.45016 °/min
Orbital period
104.34 mins
BSTAR
0.00043412
Loading maneuver chart data...
Computing Atmospheric mass density...
Loading historical data...
Loading historical data...
Loading historical data...
Loading historical data...
Loading historical data...
Loading historical data...
Loading historical data...

Documentation

Showing up to 5 results
|